TimeEST,TemperatureF,Dew PointF,Humidity,Sea Level PressureIn,VisibilityMPH,Wind Direction,Wind SpeedMPH,Gust SpeedMPH,PrecipitationIn,Events,Conditions,WindDirDegrees,DateUTC
12:51 AM,55.4,35.6,47,29.87,10.0,SSW,6.9,-,N/A,,Overcast,200,2012-12-16 05:51:00
1:51 AM,55.9,41.0,57,29.88,10.0,SSW,6.9,-,N/A,,Overcast,200,2012-12-16 06:51:00
2:51 AM,57.0,42.1,57,29.87,10.0,South,11.5,-,N/A,,Overcast,190,2012-12-16 07:51:00
3:51 AM,55.9,46.9,72,29.86,10.0,South,9.2,17.3,N/A,,Mostly Cloudy,180,2012-12-16 08:51:00
4:51 AM,55.0,48.0,77,29.85,10.0,South,9.2,-,N/A,,Mostly Cloudy,180,2012-12-16 09:51:00
5:16 AM,55.4,48.2,77,29.85,10.0,South,6.9,-,N/A,,Overcast,180,2012-12-16 10:16:00
5:51 AM,55.0,48.0,77,29.84,10.0,South,9.2,-,N/A,,Overcast,190,2012-12-16 10:51:00
6:51 AM,55.9,48.0,75,29.84,10.0,South,6.9,-,N/A,,Overcast,190,2012-12-16 11:51:00
7:51 AM,55.0,48.0,77,29.84,10.0,South,5.8,-,N/A,,Overcast,170,2012-12-16 12:51:00
8:51 AM,55.9,48.0,75,29.82,10.0,South,5.8,-,N/A,,Overcast,170,2012-12-16 13:51:00
9:51 AM,57.0,48.9,74,29.83,10.0,South,6.9,-,N/A,,Mostly Cloudy,180,2012-12-16 14:51:00
10:51 AM,57.9,48.9,72,29.84,10.0,South,8.1,-,N/A,,Overcast,190,2012-12-16 15:51:00
11:51 AM,57.9,50.0,75,29.81,10.0,South,9.2,-,N/A,,Overcast,190,2012-12-16 16:51:00
12:51 PM,57.2,51.8,82,29.78,10.0,South,9.2,-,N/A,,Overcast,180,2012-12-16 17:51:00
1:51 PM,59.0,51.1,75,29.75,10.0,South,8.1,-,N/A,,Overcast,190,2012-12-16 18:51:00
2:51 PM,59.0,51.1,75,29.75,10.0,SW,5.8,-,N/A,,Mostly Cloudy,220,2012-12-16 19:51:00
3:51 PM,60.1,51.1,72,29.73,10.0,SSW,5.8,-,N/A,,Scattered Clouds,200,2012-12-16 20:51:00
4:51 PM,59.0,51.1,75,29.72,10.0,South,5.8,-,N/A,,Partly Cloudy,190,2012-12-16 21:51:00
5:51 PM,59.0,51.1,75,29.73,10.0,South,5.8,-,N/A,,Partly Cloudy,190,2012-12-16 22:51:00
6:51 PM,59.0,51.1,75,29.73,10.0,SSW,4.6,-,N/A,,Scattered Clouds,210,2012-12-16 23:51:00
7:51 PM,57.9,51.1,78,29.74,10.0,SSW,5.8,-,N/A,,Clear,210,2012-12-17 00:51:00
8:51 PM,57.9,50.0,75,29.72,10.0,South,4.6,-,N/A,,Partly Cloudy,190,2012-12-17 01:51:00
9:51 PM,57.2,50.0,77,29.75,10.0,WNW,3.5,-,N/A,,Scattered Clouds,290,2012-12-17 02:51:00
10:51 PM,57.9,50.0,75,29.77,10.0,WSW,5.8,-,N/A,,Partly Cloudy,240,2012-12-17 03:51:00
11:51 PM,57.9,50.0,75,29.77,10.0,SW,9.2,-,N/A,,Overcast,220,2012-12-17 04:51:00